Time,TemperatureF,DewpointF,PressureIn,WindDirection,WindDirectionDegrees,WindSpeedMPH,WindSpeedGustMPH,Humidity,HourlyPrecipIn,Conditions,Clouds,dailyrainin,SoftwareType,DateUTC
2013-03-01 00:07:00,18.7,17.0,29.86,WNW,292,6.0,11.0,94,0.00,,,0.00,weatherlink.com 1.10,2013-03-01 05:07:00,
2013-03-01 00:22:00,18.7,17.0,29.86,NW,313,4.0,10.0,94,0.00,,,0.00,weatherlink.com 1.10,2013-03-01 05:22:00,
2013-03-01 00:37:00,18.7,17.0,29.86,WNW,301,5.0,9.0,94,0.00,,,0.00,weatherlink.com 1.10,2013-03-01 05:37:00,
2013-03-01 00:52:00,18.8,17.0,29.87,WNW,296,8.0,11.0,94,0.00,,,0.00,weatherlink.com 1.10,2013-03-01 05:52:00,
2013-03-01 01:07:00,18.8,17.0,29.88,West,273,4.0,9.0,94,0.00,,,0.00,weatherlink.com 1.10,2013-03-01 06:07:00,
2013-03-01 01:22:00,18.9,18.0,29.86,NW,313,4.0,8.0,94,0.00,,,0.00,weatherlink.com 1.10,2013-03-01 06:22:00,
2013-03-01 01:37:00,18.8,17.0,29.86,WNW,295,5.0,10.0,94,0.00,,,0.00,weatherlink.com 1.10,2013-03-01 06:37:00,
2013-03-01 01:52:00,18.9,18.0,29.86,NW,306,3.0,9.0,94,0.00,,,0.00,weatherlink.com 1.10,2013-03-01 06:52:00,
2013-03-01 02:07:00,18.9,18.0,29.86,West,271,4.0,6.0,94,0.00,,,0.00,weatherlink.com 1.10,2013-03-01 07:07:00,
2013-03-01 02:22:00,18.9,18.0,29.86,West,280,2.0,9.0,94,0.00,,,0.00,weatherlink.com 1.10,2013-03-01 07:22:00,
2013-03-01 02:38:00,18.9,18.0,29.86,SW,226,2.0,6.0,94,0.00,,,0.00,weatherlink.com 1.10,2013-03-01 07:38:00,
2013-03-01 02:52:00,18.9,18.0,29.86,NW,323,2.0,8.0,94,0.00,,,0.00,weatherlink.com 1.10,2013-03-01 07:52:00,
2013-03-01 03:07:00,18.9,18.0,29.87,West,267,3.0,6.0,94,0.00,,,0.00,weatherlink.com 1.10,2013-03-01 08:07:00,
2013-03-01 03:23:00,19.0,18.0,29.86,WSW,243,3.0,6.0,94,0.00,,,0.00,weatherlink.com 1.10,2013-03-01 08:23:00,
2013-03-01 03:37:00,19.0,18.0,29.86,WSW,242,2.0,7.0,94,0.00,,,0.00,weatherlink.com 1.10,2013-03-01 08:37:00,
2013-03-01 03:53:00,19.0,18.0,29.86,SW,225,6.0,8.0,94,0.00,,,0.00,weatherlink.com 1.10,2013-03-01 08:53:00,
2013-03-01 04:07:00,19.0,18.0,29.86,WNW,294,3.0,6.0,94,0.00,,,0.00,weatherlink.com 1.10,2013-03-01 09:07:00,
2013-03-01 04:22:00,19.1,18.0,29.86,NW,305,2.0,5.0,94,0.00,,,0.00,weatherlink.com 1.10,2013-03-01 09:22:00,
2013-03-01 04:37:00,19.1,18.0,29.87,NW,317,1.0,6.0,94,0.00,,,0.00,weatherlink.com 1.10,2013-03-01 09:37:00,
2013-03-01 04:53:00,19.1,18.0,29.88,WNW,285,3.0,6.0,94,0.00,,,0.00,weatherlink.com 1.10,2013-03-01 09:53:00,
2013-03-01 05:08:00,19.2,18.0,29.89,NW,304,2.0,5.0,94,0.00,,,0.00,weatherlink.com 1.10,2013-03-01 10:08:00,
2013-03-01 05:23:00,19.3,18.0,29.90,WNW,302,0.0,4.0,94,0.00,,,0.00,weatherlink.com 1.10,2013-03-01 10:23:00,
2013-03-01 05:38:00,19.3,18.0,29.91,NW,319,0.0,4.0,94,0.00,,,0.00,weatherlink.com 1.10,2013-03-01 10:38:00,
2013-03-01 05:53:00,19.3,18.0,29.90,NW,306,4.0,4.0,94,0.00,,,0.00,weatherlink.com 1.10,2013-03-01 10:53:00,
2013-03-01 06:08:00,19.4,18.0,29.91,WNW,291,1.0,5.0,94,0.00,,,0.00,weatherlink.com 1.10,2013-03-01 11:08:00,
2013-03-01 06:23:00,19.4,18.0,29.91,WNW,292,1.0,4.0,94,0.00,,,0.00,weatherlink.com 1.10,2013-03-01 11:23:00,
2013-03-01 06:38:00,19.4,18.0,29.91,West,267,2.0,5.0,94,0.00,,,0.00,weatherlink.com 1.10,2013-03-01 11:38:00,
2013-03-01 06:53:00,19.4,18.0,29.90,WSW,257,1.0,8.0,94,0.00,,,0.00,weatherlink.com 1.10,2013-03-01 11:53:00,
2013-03-01 07:08:00,19.4,18.0,29.90,WNW,288,2.0,7.0,94,0.00,,,0.00,weatherlink.com 1.10,2013-03-01 12:08:00,
2013-03-01 07:23:00,19.4,18.0,29.89,NNW,348,1.0,4.0,94,0.00,,,0.00,weatherlink.com 1.10,2013-03-01 12:23:00,
2013-03-01 07:38:00,19.5,18.0,29.90,SW,236,1.0,6.0,94,0.00,,,0.00,weatherlink.com 1.10,2013-03-01 12:38:00,
2013-03-01 07:53:00,19.7,18.0,29.91,NW,311,0.0,5.0,94,0.00,,,0.00,weatherlink.com 1.10,2013-03-01 12:53:00,
2013-03-01 08:08:00,19.7,18.0,29.91,WNW,294,0.0,4.0,94,0.00,,,0.00,weatherlink.com 1.10,2013-03-01 13:08:00,
2013-03-01 08:23:00,19.8,18.0,29.92,SW,233,4.0,5.0,94,0.00,,,0.00,weatherlink.com 1.10,2013-03-01 13:23:00,
2013-03-01 08:38:00,19.9,19.0,29.92,NW,305,2.0,7.0,94,0.00,,,0.00,weatherlink.com 1.10,2013-03-01 13:38:00,
2013-03-01 08:53:00,20.1,19.0,29.92,SW,232,2.0,7.0,94,0.00,,,0.00,weatherlink.com 1.10,2013-03-01 13:53:00,
2013-03-01 09:08:00,20.5,19.0,29.93,NW,306,0.0,3.0,94,0.00,,,0.00,weatherlink.com 1.10,2013-03-01 14:08:00,
2013-03-01 09:23:00,20.6,19.0,29.93,ENE,59,2.0,3.0,94,0.00,,,0.00,weatherlink.com 1.10,2013-03-01 14:23:00,
2013-03-01 09:38:00,20.7,19.0,29.92,WNW,290,1.0,7.0,94,0.00,,,0.00,weatherlink.com 1.10,2013-03-01 14:38:00,
2013-03-01 09:53:00,21.0,20.0,29.93,WNW,297,0.0,4.0,94,0.00,,,0.00,weatherlink.com 1.10,2013-03-01 14:53:00,
2013-03-01 10:08:00,21.2,20.0,29.93,West,277,0.0,5.0,95,0.00,,,0.00,weatherlink.com 1.10,2013-03-01 15:08:00,
2013-03-01 10:23:00,21.2,20.0,29.93,West,265,2.0,5.0,95,0.00,,,0.00,weatherlink.com 1.10,2013-03-01 15:23:00,
2013-03-01 10:38:00,21.3,20.0,29.93,NW,309,1.0,7.0,95,0.00,,,0.00,weatherlink.com 1.10,2013-03-01 15:38:00,
2013-03-01 10:53:00,21.5,20.0,29.93,NW,317,0.0,4.0,95,0.00,,,0.00,weatherlink.com 1.10,2013-03-01 15:53:00,
2013-03-01 11:23:00,21.6,20.0,29.94,WSW,248,3.0,3.0,94,0.00,,,0.00,weatherlink.com 1.10,2013-03-01 16:23:00,
2013-03-01 11:38:00,21.6,20.0,29.94,NW,305,0.0,5.0,95,0.00,,,0.00,weatherlink.com 1.10,2013-03-01 16:38:00,
2013-03-01 11:53:00,21.8,21.0,29.93,WNW,285,0.0,2.0,95,0.00,,,0.00,weatherlink.com 1.10,2013-03-01 16:53:00,
2013-03-01 12:08:00,22.1,21.0,29.94,WNW,293,0.0,2.0,95,0.00,,,0.00,weatherlink.com 1.10,2013-03-01 17:08:00,
2013-03-01 12:23:00,22.3,21.0,29.93,WNW,298,0.0,1.0,95,0.00,,,0.00,weatherlink.com 1.10,2013-03-01 17:23:00,
2013-03-01 12:38:00,22.6,21.0,29.93,WNW,291,0.0,2.0,95,0.00,,,0.00,weatherlink.com 1.10,2013-03-01 17:38:00,
2013-03-01 12:53:00,22.6,21.0,29.92,NNW,332,0.0,2.0,95,0.00,,,0.00,weatherlink.com 1.10,2013-03-01 17:53:00,
2013-03-01 13:23:00,22.3,21.0,29.91,SW,216,0.0,4.0,95,0.00,,,0.00,weatherlink.com 1.10,2013-03-01 18:23:00,
2013-03-01 13:38:00,22.4,21.0,29.90,NW,306,0.0,4.0,95,0.00,,,0.00,weatherlink.com 1.10,2013-03-01 18:38:00,
2013-03-01 13:53:00,22.4,21.0,29.90,NW,304,0.0,3.0,95,0.00,,,0.00,weatherlink.com 1.10,2013-03-01 18:53:00,
2013-03-01 14:08:00,22.8,22.0,29.90,WSW,242,3.0,6.0,95,0.00,,,0.00,weatherlink.com 1.10,2013-03-01 19:08:00,
2013-03-01 14:23:00,22.7,22.0,29.89,NW,320,1.0,3.0,95,0.00,,,0.00,weatherlink.com 1.10,2013-03-01 19:23:00,
2013-03-01 14:38:00,22.6,21.0,29.90,WSW,257,1.0,3.0,95,0.00,,,0.00,weatherlink.com 1.10,2013-03-01 19:38:00,
2013-03-01 14:53:00,22.9,22.0,29.89,WNW,301,0.0,4.0,95,0.00,,,0.00,weatherlink.com 1.10,2013-03-01 19:53:00,
2013-03-01 15:08:00,23.0,22.0,29.89,WNW,296,1.0,2.0,95,0.00,,,0.00,weatherlink.com 1.10,2013-03-01 20:08:00,
2013-03-01 15:23:00,22.9,22.0,29.89,NW,325,0.0,2.0,95,0.00,,,0.00,weatherlink.com 1.10,2013-03-01 20:23:00,
2013-03-01 15:38:00,22.7,22.0,29.89,NW,319,1.0,4.0,95,0.00,,,0.00,weatherlink.com 1.10,2013-03-01 20:38:00,
2013-03-01 15:53:00,22.3,21.0,29.89,NW,325,1.0,2.0,95,0.00,,,0.00,weatherlink.com 1.10,2013-03-01 20:53:00,
2013-03-01 16:08:00,22.5,21.0,29.90,WNW,296,0.0,3.0,95,0.00,,,0.00,weatherlink.com 1.10,2013-03-01 21:08:00,
2013-03-01 16:23:00,22.7,22.0,29.89,NW,309,0.0,3.0,95,0.00,,,0.00,weatherlink.com 1.10,2013-03-01 21:23:00,
2013-03-01 16:38:00,22.6,21.0,29.90,NW,304,1.0,2.0,95,0.00,,,0.00,weatherlink.com 1.10,2013-03-01 21:38:00,
2013-03-01 16:53:00,22.4,21.0,29.90,NW,318,0.0,3.0,95,0.00,,,0.00,weatherlink.com 1.10,2013-03-01 21:53:00,
2013-03-01 17:08:00,22.2,21.0,29.90,NNW,329,0.0,2.0,95,0.00,,,0.00,weatherlink.com 1.10,2013-03-01 22:08:00,
2013-03-01 17:23:00,22.1,21.0,29.91,WNW,299,0.0,3.0,95,0.00,,,0.00,weatherlink.com 1.10,2013-03-01 22:23:00,
2013-03-01 17:38:00,21.9,21.0,29.91,NW,323,0.0,2.0,95,0.00,,,0.00,weatherlink.com 1.10,2013-03-01 22:38:00,
2013-03-01 17:53:00,21.9,21.0,29.91,NW,311,0.0,1.0,95,0.00,,,0.00,weatherlink.com 1.10,2013-03-01 22:53:00,
2013-03-01 18:08:00,22.0,21.0,29.92,NNW,344,0.0,2.0,95,0.00,,,0.00,weatherlink.com 1.10,2013-03-01 23:08:00,
2013-03-01 18:23:00,22.1,21.0,29.93,WNW,291,0.0,1.0,95,0.00,,,0.00,weatherlink.com 1.10,2013-03-01 23:23:00,
2013-03-01 18:38:00,22.1,21.0,29.93,NNW,327,0.0,4.0,95,0.00,,,0.00,weatherlink.com 1.10,2013-03-01 23:38:00,
2013-03-01 19:08:00,22.0,21.0,29.93,WSW,248,2.0,2.0,95,0.00,,,0.00,weatherlink.com 1.10,2013-03-02 00:08:00,
2013-03-01 19:23:00,22.1,21.0,29.93,WNW,301,0.0,2.0,95,0.00,,,0.00,weatherlink.com 1.10,2013-03-02 00:23:00,
2013-03-01 19:38:00,22.1,21.0,29.93,WNW,287,1.0,3.0,95,0.00,,,0.00,weatherlink.com 1.10,2013-03-02 00:38:00,
2013-03-01 19:54:00,22.2,21.0,29.93,WSW,239,1.0,4.0,95,0.00,,,0.00,weatherlink.com 1.10,2013-03-02 00:54:00,
2013-03-01 20:08:00,22.3,21.0,29.94,NW,309,0.0,3.0,95,0.00,,,0.00,weatherlink.com 1.10,2013-03-02 01:08:00,
2013-03-01 20:23:00,22.3,21.0,29.93,WNW,295,0.0,2.0,95,0.00,,,0.00,weatherlink.com 1.10,2013-03-02 01:23:00,
2013-03-01 20:38:00,22.3,21.0,29.93,WNW,300,0.0,0.0,95,0.00,,,0.00,weatherlink.com 1.10,2013-03-02 01:38:00,
2013-03-01 20:53:00,22.3,21.0,29.93,WSW,242,0.0,3.0,95,0.00,,,0.00,weatherlink.com 1.10,2013-03-02 01:53:00,
2013-03-01 21:08:00,22.1,21.0,29.93,WNW,298,0.0,3.0,95,0.00,,,0.00,weatherlink.com 1.10,2013-03-02 02:08:00,
2013-03-01 21:23:00,22.0,21.0,29.93,East,93,0.0,4.0,95,0.00,,,0.00,weatherlink.com 1.10,2013-03-02 02:23:00,
2013-03-01 21:38:00,22.0,21.0,29.93,WNW,298,0.0,2.0,95,0.00,,,0.00,weatherlink.com 1.10,2013-03-02 02:38:00,
2013-03-01 21:54:00,21.9,21.0,29.92,NW,322,1.0,3.0,95,0.00,,,0.00,weatherlink.com 1.10,2013-03-02 02:54:00,
2013-03-01 22:09:00,21.9,21.0,29.92,WNW,289,1.0,4.0,95,0.00,,,0.00,weatherlink.com 1.10,2013-03-02 03:09:00,
2013-03-01 22:24:00,21.8,21.0,29.92,WSW,242,2.0,4.0,95,0.00,,,0.00,weatherlink.com 1.10,2013-03-02 03:24:00,
2013-03-01 22:39:00,21.8,21.0,29.92,WSW,248,0.0,4.0,95,0.00,,,0.00,weatherlink.com 1.10,2013-03-02 03:39:00,
2013-03-01 22:54:00,21.8,21.0,29.92,NW,305,3.0,5.0,95,0.00,,,0.00,weatherlink.com 1.10,2013-03-02 03:54:00,
2013-03-01 23:09:00,21.6,20.0,29.92,NW,321,0.0,5.0,95,0.00,,,0.00,weatherlink.com 1.10,2013-03-02 04:09:00,
2013-03-01 23:24:00,21.7,21.0,29.91,West,261,2.0,4.0,95,0.00,,,0.00,weatherlink.com 1.10,2013-03-02 04:24:00,
2013-03-01 23:39:00,21.8,21.0,29.91,WNW,301,2.0,4.0,95,0.00,,,0.00,weatherlink.com 1.10,2013-03-02 04:39:00,
2013-03-01 23:54:00,21.7,21.0,29.91,West,279,1.0,3.0,95,0.00,,,0.00,weatherlink.com 1.10,2013-03-02 04:54:00,